Regional Weather Roundup
Issued by NWS Charleston, WV

Home | Current Version | Previous Version | Graphics & Text | Print | Product List | Glossary On
Versions: 1 2 3 4 5 6 7 8 9 10 11 12 13 14 15 16 17 18 19 20 21 22 23 24 25 26 27 28 29 30 31 32 33 34 35 36 37 38 39 40 41 42 43 44 45 46 47 48 49 50
000
ASUS41 KRLX 301310
RWRRLX
West Virginia Regional Weather Roundup
National Weather Service Charleston WV
900 AM EDT TUE AUG 30 2016

Note: "fair" indicates few or no clouds below 12,000 feet with no
significant weather and/or obstructions to visibility.

WVZ003-301400-
Northern Panhandle of West Virginia

CITY           SKY/WX    TMP DP  RH WIND       PRES   REMARKS
WHEELING       SUNNY     69  60  73 CALM      30.19F
$$

WVZ009-301400-
Northwest West Virginia

CITY           SKY/WX    TMP DP  RH WIND       PRES   REMARKS
PARKERSBURG    SUNNY     69  63  81 CALM      30.19F
$$

WVZ006-301400-
Western West Virginia

CITY           SKY/WX    TMP DP  RH WIND       PRES   REMARKS
HUNTINGTON     SUNNY     74  67  78 NE5       30.16R
$$

WVZ015-301400-
West Central West Virginia

CITY           SKY/WX    TMP DP  RH WIND       PRES   REMARKS
CHARLESTON     MOSUNNY   69  68  96 NE3       30.16S FOG
$$

WVZ022-031-301400-
North Central West Virginia

CITY           SKY/WX    TMP DP  RH WIND       PRES   REMARKS
CLARKSBURG     SUNNY     67  64  90 CALM      30.19S
MORGANTOWN     NOT AVBL
$$

WVZ025-035-042-045-301400-
Southern West Virginia

CITY           SKY/WX    TMP DP  RH WIND       PRES   REMARKS
BECKLEY        MOSUNNY   69  65  86 SE5       30.24R
LOGAN          FOG       72  72 100 CALM      30.18S VSB<1/4
BLUEFIELD      MOSUNNY   68  65  90 CALM      30.26R
LEWISBURG      CLOUDY    65  65  99 CALM      30.25R
$$

WVZ047-301400-
Northern Mountains of West Virginia

CITY           SKY/WX    TMP DP  RH WIND       PRES   REMARKS
ELKINS         CLOUDY    65  63  93 CALM      30.24R FOG
$$

WVZ052-301400-
Eastern Panhandle of West Virginia

CITY           SKY/WX    TMP DP  RH WIND       PRES   REMARKS
MARTINSBURG    SUNNY     74  61  63 NE6       30.18S
PETERSBURG     SUNNY     69  65  87 CALM      30.21S
$$




USA.gov is the U.S. government's official web portal to all federal, state and local government web resources and services.